Hourly Data Report for September 14, 2017

All times are specified in Local Standard Time (LST). Add 1 hour to adjust for Daylight Saving Time where and when it is observed.

ALERT CLIMATE
NUNAVUT

82°30'00.000" N
62°20'00.000" W
65.40 m
2400305
71355
ZLT

Download Data

Hourly Data (September 2017)
Hourly Data Report for September 14, 2017
Temp Definition
°C
Dew Point Temp Definition
°C
Rel Hum Definition
%
Wind Dir Definition
10's deg

Wind Spd Definition
km/h
Visibility Definition
km
Stn Press Definition
kPa
Hmdx Definition


Wind Chill Definition


Weather Definition


TIME
00:00 -8.0 -9.4 90 30 5   101.34   -11 LegendNANA
01:00 -7.9 -9.0 91 29 6   101.33   -11 LegendNANA
02:00 -8.1 -8.8 94 0 1   101.33   -9 LegendNANA
03:00 -7.7 -8.5 94 0 1   101.34   -8 LegendNANA
04:00 -7.8 -8.5 95 0 1   101.36   -8 LegendNANA
05:00 -7.9 -8.4 96 10 3   101.36   -9 LegendNANA
06:00 -8.1 -8.7 96 10 2   101.34   -9 LegendNANA
07:00 -8.1 -8.7 96 0 1   101.34   -9 LegendNANA
08:00 -7.8 -8.7 94 10 3   101.32   -9 LegendNANA
09:00 -7.9 -8.9 93 9 2   101.28   -9 LegendNANA
10:00 -8.0 -8.8 94 7 3   101.26   -10 LegendNANA
11:00 -8.0 -8.7 95 9 6   101.23   -11 LegendNANA
12:00 -7.7 -8.5 94 7 5   101.19   -10 LegendNANA
13:00 -7.6 -8.6 93 6 3   101.16   -9 LegendNANA
14:00 -8.1 -8.8 95 7 7   101.14   -12 LegendNANA
15:00 -7.9 -8.7 94 8 5   101.12   -11 LegendNANA
16:00 -7.9 -8.8 93 36 4   101.08   -10 LegendNANA
17:00 -8.0 -8.9 93 34 5   101.04   -11 LegendNANA
18:00 -8.1 -9.0 93 34 6   101.00   -11 LegendNANA
19:00 -8.7 -9.4 95 36 6   100.96   -12 LegendNANA
20:00 -9.1 -9.7 95 36 8   100.91   -13 LegendNANA
21:00 -10.1 -10.8 94 1 7   100.85   -14 LegendNANA
22:00 -9.9 -10.7 94 2 6   100.78   -13 LegendNANA
23:00 -10.2 -11.0 94 2 2   100.73   -11 LegendNANA

Notes on Data Quality.

Legend

  • E = Estimated
  • M = Missing
  • NA = Not Available
  • ‡ = Partner data that is not subject to review by the National Climate Archives
Date modified: